Weather History for CWCL - April, 2014

Change the Weather History Date:

Wednesday, April 16, 2014

  Actual Average Record
Temperature  
Mean Temperature 38 °F -  
Max Temperature 48 °F 49 °F 64 °F (1999)
Min Temperature 28 °F 26 °F 23 °F (2011)
Degree Days  
Heating Degree Days 27    
Moisture  
Dew Point 24 °F    
Average Humidity 51    
Maximum Humidity 64    
Minimum Humidity 33    
Precipitation  
Precipitation 0.00 in - - ()
Sea Level Pressure  
Sea Level Pressure 29.94 in    
Wind  
Wind Speed 4 mph ()    
Max Wind Speed 13 mph    
Max Gust Speed 17 mph    
Visibility 9.0 miles    
Events      
Averages and records for this station are not official NWS values.
T = Trace of Precipitation, MM = Missing Value Source: Averaged Metar Reports

Daily Weather History Graph

Daily Weather History Graph

Search for Another Location

Airport or City:

Trip Planner

Search our weather history database for the weather conditions in past years. The results will help you decide how hot, cold, wet, or windy it might be!

Date:

Astronomy

Apr. 16, 2014 Rise Set
Actual Time 6:08 AM PDT 8:04 PM PDT
Civil Twilight 5:33 AM PDT 8:39 PM PDT
Nautical Twilight 4:49 AM PDT 9:23 PM PDT
Astronomical Twilight 4:00 AM PDT 10:13 PM PDT
Moon 10:04 PM PDT (4/16) 6:52 AM PDT (4/16)
Length of Visible Light 15h 06m
Length of Day
13h 55m
Full, 98% of the Moon is Illuminated
Apr 16
Full
Apr 22
Last Quarter
Apr 28
New
May 6
First Quarter
May 14
Full

Hourly Weather History & Observations

Time (PDT) Temp. Windchill Dew Point Humidity Pressure Visibility Wind Dir Wind Speed Gust Speed Precip Events Conditions
12:00 AM 32.0 °F - 19.4 °F 60% 29.99 in 9.0 mi WSW 2.3 mph - N/A   Unknown
1:00 AM 32.0 °F - 19.4 °F 60% 29.99 in 9.0 mi SSW 2.3 mph - N/A   Unknown
2:00 AM 32 °F - 20 °F 49% 29.99 in 9 mi SSW 3.5 mph - -  
2:00 AM 32.0 °F 28.7 °F 19.4 °F 60% 29.99 in 9.0 mi SSW 3.5 mph - N/A   Unknown
3:00 AM 32.0 °F 27.5 °F 19.4 °F 60% 30.00 in 9.0 mi WSW 4.6 mph - N/A   Unknown
4:00 AM 32.0 °F 28.7 °F 19.4 °F 60% 30.00 in 9.0 mi SSW 3.5 mph - N/A   Unknown
5:00 AM 32 °F - 20 °F 48% 29.99 in 9 mi WSW 4.6 mph - -  
5:00 AM 32.0 °F 28.7 °F 19.4 °F 60% 29.99 in 9.0 mi WSW 3.5 mph - N/A   Unknown
6:00 AM 28.4 °F - 17.6 °F 64% 30.00 in 9.0 mi SSW 2.3 mph - N/A   Unknown
7:00 AM 28.4 °F 24.6 °F 17.6 °F 64% 30.00 in 9.0 mi SW 3.5 mph - N/A   Unknown
8:00 AM 36 °F - 22 °F 45% 29.99 in 9 mi South 2.3 mph - -  
8:00 AM 35.6 °F - 23.0 °F 60% 29.99 in 9.0 mi South 2.3 mph - N/A   Unknown
9:00 AM 37.4 °F 34.9 °F 23.0 °F 56% 30.00 in 9.0 mi South 3.5 mph - N/A   Unknown
10:00 AM 41.0 °F 38.0 °F 23.0 °F 49% 29.99 in 9.0 mi SSE 4.6 mph - N/A   Unknown
11:00 AM 43 °F - 24 °F 34% 29.98 in 9 mi South 6.9 mph - -  
11:00 AM 42.8 °F 38.0 °F 24.8 °F 49% 29.98 in 9.0 mi South 8.1 mph - N/A   Unknown
12:00 PM 44.6 °F 40.7 °F 24.8 °F 46% 29.96 in 9.0 mi SSE 6.9 mph - N/A   Unknown
1:00 PM 46.4 °F 43.5 °F 26.6 °F 46% 29.95 in 9.0 mi SSE 5.8 mph - N/A   Unknown
2:00 PM 47 °F - 27 °F 33% 29.93 in 9 mi South 6.9 mph - -  
2:00 PM 48.2 °F - 26.6 °F 43% 29.93 in 9.0 mi SSE 8.1 mph - N/A   Unknown
3:00 PM 48.2 °F - 28.4 °F 46% 29.92 in 9.0 mi South 8.1 mph - N/A   Unknown
4:00 PM 46.4 °F 41.9 °F 28.4 °F 50% 29.91 in 9.0 mi South 9.2 mph - N/A   Unknown
5:00 PM 47 °F - 30 °F 38% 29.89 in 9 mi South 9.2 mph - -  
5:00 PM 48.2 °F - 30.2 °F 50% 29.89 in 9.0 mi South 8.1 mph 17.3 mph N/A   Unknown
6:00 PM 46.4 °F 40.7 °F 30.2 °F 53% 29.90 in 9.0 mi South 12.7 mph - N/A   Unknown
7:00 PM 44.6 °F 40.2 °F 28.4 °F 53% 29.88 in 9.0 mi South 8.1 mph - N/A   Unknown
8:00 PM 43 °F - 28 °F 44% 29.86 in 9 mi South 8.1 mph - -  
8:00 PM 42.8 °F 39.3 °F 28.4 °F 57% 29.86 in 9.0 mi SSW 5.8 mph - N/A   Unknown
9:00 PM 41.0 °F 38.0 °F 26.6 °F 57% 29.87 in 9.0 mi SSW 4.6 mph - N/A   Unknown
10:00 PM 42.8 °F 40.1 °F 26.6 °F 53% 29.84 in 9.0 mi South 4.6 mph - N/A   Unknown
11:00 PM 42 °F - 26 °F 40% 29.83 in 9 mi South 6.9 mph - -  
11:00 PM 42.8 °F 38.6 °F 26.6 °F 53% 29.83 in 9.0 mi South 6.9 mph - N/A   Unknown